TimePST,TemperatureF,Dew PointF,Humidity,Sea Level PressureIn,VisibilityMPH,Wind Direction,Wind SpeedMPH,Gust SpeedMPH,PrecipitationIn,Events,Conditions,WindDirDegrees,DateUTC
12:53 AM,27.0,21.9,81,30.19,-9999.0,Calm,Calm,-,N/A,,Clear,0,2013-12-18 08:53:00
1:53 AM,27.0,21.9,81,30.18,-9999.0,Calm,Calm,-,N/A,,Partly Cloudy,0,2013-12-18 09:53:00
2:53 AM,25.0,19.9,81,30.18,-9999.0,South,3.5,-,N/A,,Scattered Clouds,190,2013-12-18 10:53:00
3:53 AM,24.1,19.0,81,30.17,-9999.0,SSW,3.5,-,N/A,,Scattered Clouds,210,2013-12-18 11:53:00
4:53 AM,26.1,19.0,75,30.14,-9999.0,Calm,Calm,-,N/A,,Partly Cloudy,0,2013-12-18 12:53:00
5:53 AM,25.0,19.0,78,30.14,-9999.0,Calm,Calm,-,N/A,,Clear,0,2013-12-18 13:53:00
6:53 AM,24.1,18.0,77,30.14,-9999.0,Calm,Calm,-,N/A,,Clear,0,2013-12-18 14:53:00
7:53 AM,25.0,19.0,78,30.14,-9999.0,South,4.6,-,N/A,,Clear,190,2013-12-18 15:53:00
8:53 AM,30.0,23.0,75,30.12,-9999.0,Calm,Calm,-,N/A,,Partly Cloudy,0,2013-12-18 16:53:00
9:53 AM,34.0,26.1,73,30.10,-9999.0,South,3.5,-,N/A,,Overcast,190,2013-12-18 17:53:00
10:53 AM,48.0,33.1,56,30.02,-9999.0,NNE,5.8,-,N/A,,Mostly Cloudy,30,2013-12-18 18:53:00
11:53 AM,54.0,27.0,35,29.93,-9999.0,South,8.1,-,N/A,,Partly Cloudy,170,2013-12-18 19:53:00
12:53 PM,55.9,23.0,28,29.87,-9999.0,SSW,12.7,27.6,N/A,,Scattered Clouds,200,2013-12-18 20:53:00
1:53 PM,54.0,21.9,29,29.84,-9999.0,South,11.5,-,N/A,,Clear,190,2013-12-18 21:53:00
2:53 PM,52.0,21.0,30,29.84,-9999.0,SW,5.8,-,N/A,,Mostly Cloudy,220,2013-12-18 22:53:00
3:53 PM,50.0,19.9,31,29.83,-9999.0,South,8.1,-,N/A,,Scattered Clouds,170,2013-12-18 23:53:00
4:53 PM,46.9,23.0,39,29.81,-9999.0,Variable,5.8,-,N/A,,Mostly Cloudy,0,2013-12-19 00:53:00
5:53 PM,46.0,21.9,39,29.78,-9999.0,SSW,6.9,-,N/A,,Scattered Clouds,200,2013-12-19 01:53:00
6:53 PM,46.0,21.9,39,29.77,-9999.0,Variable,6.9,-,N/A,,Overcast,0,2013-12-19 02:53:00
7:53 PM,44.1,24.1,45,29.77,-9999.0,SSW,5.8,17.3,N/A,,Overcast,200,2013-12-19 03:53:00
8:53 PM,39.0,24.1,55,29.73,-9999.0,SW,3.5,-,N/A,,Scattered Clouds,220,2013-12-19 04:53:00
9:53 PM,36.0,23.0,59,29.70,-9999.0,Calm,Calm,-,N/A,,Scattered Clouds,0,2013-12-19 05:53:00
10:53 PM,37.9,21.0,51,29.64,-9999.0,Variable,3.5,-,N/A,,Overcast,0,2013-12-19 06:53:00
11:53 PM,37.9,19.9,48,29.61,-9999.0,SSW,8.1,-,N/A,,Overcast,200,2013-12-19 07:53:00